| time (UTC) | temp F | wind direction | speed MPH | gust MPH | rain 1hr in | rain 24hr in | rain mn in | humidity % | barometer mb |
| 20260901104602 | 80 | 124 | 2.0 | 4.0 | 0.00 | 0.00 | 0.00 | 46 | 1020.0 |
| 20260901104044 | 80 | 20 | 1.0 | 4.0 | 0.00 | 0.00 | 0.00 | 47 | 1020.0 |
| 20260901103545 | 80 | 114 | 1.0 | 7.0 | 0.00 | 0.00 | 0.00 | 47 | 1020.0 |
| 20260901103058 | 79 | 78 | 1.0 | 7.0 | 0.00 | 0.00 | 0.00 | 48 | 1020.2 |
| 20260901102546 | 79 | 191 | 2.0 | 6.0 | 0.00 | 0.00 | 0.00 | 47 | 1020.2 |
| 20260901102043 | 79 | 165 | 0.0 | 7.0 | 0.00 | 0.00 | 0.00 | 48 | 1020.2 |
| 20260901101557 | 77 | 209 | 3.0 | 10.0 | 0.00 | 0.00 | 0.00 | 50 | 1020.2 |
| 20260901101044 | 77 | 158 | 2.0 | 10.0 | 0.00 | 0.00 | 0.00 | 50 | 1020.3 |
| 20260901100545 | 77 | 162 | 3.0 | 10.0 | 0.00 | 0.00 | 0.00 | 49 | 1020.4 |
| 20260901100101 | 77 | 146 | 3.0 | 7.0 | 0.00 | 0.00 | 0.00 | 50 | 1020.3 |
| 20260901095545 | 78 | 76 | 2.0 | 4.0 | 0.00 | 0.00 | 0.00 | 50 | 1020.3 |
| 20260901095045 | 77 | 70 | 1.0 | 5.0 | 0.00 | 0.00 | 0.00 | 54 | 1020.2 |
| 20260901094600 | 77 | 80 | 1.0 | 5.0 | 0.00 | 0.00 | 0.00 | 52 | 1020.3 |
| 20260901094044 | 77 | 37 | 2.0 | 5.0 | 0.00 | 0.00 | 0.00 | 53 | 1020.4 |
| 20260901093548 | 76 | 0 | 0.0 | 7.0 | 0.00 | 0.00 | 0.00 | 53 | 1020.2 |
| 20260901093103 | 75 | 164 | 3.0 | 7.0 | 0.00 | 0.00 | 0.00 | 55 | 1020.3 |
| 20260901092545 | 75 | 205 | 3.0 | 5.0 | 0.00 | 0.00 | 0.00 | 57 | 1020.3 |
| 20260901092046 | 75 | 153 | 2.0 | 4.0 | 0.00 | 0.00 | 0.00 | 56 | 1020.3 |
| 20260901091555 | 75 | 16 | 0.0 | 5.0 | 0.00 | 0.00 | 0.00 | 55 | 1020.3 |
| 20260901091045 | 76 | 180 | 0.0 | 5.0 | 0.00 | 0.00 | 0.00 | 54 | 1020.2 |
| 20260901090544 | 76 | 21 | 1.0 | 5.0 | 0.00 | 0.00 | 0.00 | 54 | 1020.2 |
| 20260901090105 | 74 | 98 | 1.0 | 4.0 | 0.00 | 0.00 | 0.00 | 57 | 1020.2 |
| 20260901085545 | 75 | 38 | 2.0 | 5.0 | 0.00 | 0.00 | 0.00 | 56 | 1020.3 |
| 20260901085043 | 74 | 285 | 2.0 | 5.0 | 0.00 | 0.00 | 0.00 | 59 | 1020.3 |
| 20260901084558 | 73 | 160 | 1.0 | 5.0 | 0.00 | 0.00 | 0.00 | 59 | 1020.3 |
| 20260901084043 | 74 | 191 | 1.0 | 4.0 | 0.00 | 0.00 | 0.00 | 59 | 1020.2 |
| 20260901083542 | 73 | 143 | 0.0 | 3.0 | 0.00 | 0.00 | 0.00 | 60 | 1020.1 |
| 20260901083058 | 73 | 0 | 0.0 | 7.0 | 0.00 | 0.00 | 0.00 | 61 | 1020.1 |
| 20260901082545 | 73 | 169 | 1.0 | 7.0 | 0.00 | 0.00 | 0.00 | 62 | 1020.0 |
| 20260901082044 | 73 | 141 | 3.0 | 7.0 | 0.00 | 0.00 | 0.00 | 62 | 1020.0 |
| 20260901081558 | 73 | 132 | 1.0 | 6.0 | 0.00 | 0.00 | 0.00 | 61 | 1020.0 |
| 20260901081045 | 73 | 110 | 1.0 | 6.0 | 0.00 | 0.00 | 0.00 | 60 | 1020.0 |
| 20260901080545 | 72 | 50 | 0.0 | 6.0 | 0.00 | 0.00 | 0.00 | 59 | 1019.9 |
| 20260901080107 | 72 | 60 | 1.0 | 6.0 | 0.00 | 0.00 | 0.00 | 59 | 1019.9 |
| 20260901075545 | 72 | 147 | 1.0 | 6.0 | 0.00 | 0.00 | 0.00 | 58 | 1020.0 |
| 20260901075042 | 72 | 144 | 2.0 | 6.0 | 0.00 | 0.00 | 0.00 | 57 | 1019.9 |
| 20260901074600 | 72 | 120 | 0.0 | 4.0 | 0.00 | 0.00 | 0.00 | 56 | 1019.9 |
| 20260901074042 | 72 | 0 | 1.0 | 7.0 | 0.00 | 0.00 | 0.00 | 56 | 1020.0 |
| 20260901073543 | 72 | 93 | 0.0 | 7.0 | 0.00 | 0.00 | 0.00 | 58 | 1019.9 |
| 20260901073104 | 72 | 163 | 1.0 | 6.0 | 0.00 | 0.00 | 0.00 | 59 | 1019.9 |
| 20260901072544 | 71 | 121 | 1.0 | 5.0 | 0.00 | 0.00 | 0.00 | 59 | 1019.9 |
| 20260901072045 | 71 | 0 | 0.0 | 4.0 | 0.00 | 0.00 | 0.00 | 59 | 1019.9 |
| 20260901071558 | 71 | 153 | 0.0 | 3.0 | 0.00 | 0.00 | 0.00 | 58 | 1019.9 |
| 20260901071045 | 71 | 0 | 1.0 | 6.0 | 0.00 | 0.00 | 0.00 | 58 | 1019.9 |
| 20260901070544 | 71 | 41 | 0.0 | 6.0 | 0.00 | 0.00 | 0.00 | 60 | 1019.8 |
| 20260901070104 | 70 | 136 | 2.0 | 6.0 | 0.00 | 0.00 | 0.00 | 61 | 1019.8 |
| 20260901065544 | 70 | 141 | 1.0 | 5.0 | 0.00 | 0.00 | 0.00 | 61 | 1019.8 |
| 20260901065044 | 70 | 156 | 0.0 | 4.0 | 0.00 | 0.00 | 0.00 | 60 | 1019.8 |
| 20260901064559 | 70 | 185 | 0.0 | 4.0 | 0.00 | 0.00 | 0.00 | 60 | 1019.8 |
| 20260901064045 | 70 | 0 | 0.0 | 4.0 | 0.00 | 0.00 | 0.00 | 60 | 1019.7 |
| 20260901063544 | 70 | 35 | 0.0 | 4.0 | 0.00 | 0.00 | 0.00 | 59 | 1019.7 |
| 20260901063057 | 70 | 37 | 1.0 | 4.0 | 0.00 | 0.00 | 0.00 | 58 | 1019.7 |
| 20260901062548 | 70 | 44 | 0.0 | 4.0 | 0.00 | 0.00 | 0.00 | 56 | 1019.7 |
| 20260901062044 | 70 | 82 | 0.0 | 4.0 | 0.00 | 0.00 | 0.00 | 56 | 1019.5 |
| 20260901061558 | 70 | 102 | 1.0 | 4.0 | 0.00 | 0.00 | 0.00 | 55 | 1019.4 |
| 20260901061043 | 70 | 0 | 0.0 | 3.0 | 0.00 | 0.00 | 0.00 | 56 | 1019.4 |
| 20260901060543 | 70 | 163 | 0.0 | 3.0 | 0.00 | 0.00 | 0.00 | 57 | 1019.4 |
| 20260901055545 | 70 | 0 | 0.0 | 2.0 | 0.00 | 0.00 | 0.00 | 58 | 1019.4 |
| 20260901055043 | 70 | 0 | 0.0 | 3.0 | 0.00 | 0.00 | 0.00 | 58 | 1019.3 |
| 20260901054559 | 70 | 0 | 0.0 | 3.0 | 0.00 | 0.00 | 0.00 | 58 | 1019.3 |
| 20260901054042 | 70 | 0 | 0.0 | 2.0 | 0.00 | 0.00 | 0.00 | 58 | 1019.3 |
| 20260901053546 | 70 | 0 | 0.0 | 5.0 | 0.00 | 0.00 | 0.00 | 57 | 1019.2 |
| 20260901053057 | 71 | 0 | 0.0 | 5.0 | 0.00 | 0.00 | 0.00 | 58 | 1019.1 |
| 20260901052546 | 71 | 166 | 1.0 | 5.0 | 0.00 | 0.00 | 0.00 | 58 | 1019.1 |
| 20260901052042 | 71 | 95 | 1.0 | 3.0 | 0.00 | 0.00 | 0.00 | 58 | 1019.1 |
| 20260901051558 | 71 | 0 | 0.0 | 2.0 | 0.00 | 0.00 | 0.00 | 57 | 1019.0 |
| 20260901051044 | 71 | 0 | 0.0 | 3.0 | 0.00 | 0.00 | 0.00 | 57 | 1019.1 |
| 20260901050543 | 71 | 0 | 1.0 | 6.0 | 0.00 | 0.00 | 0.00 | 57 | 1019.1 |
| 20260901050100 | 71 | 0 | 1.0 | 6.0 | 0.00 | 0.00 | 0.00 | 56 | 1019.2 |
| 20260901045545 | 71 | 126 | 0.0 | 3.0 | 0.00 | 0.00 | 0.00 | 55 | 1019.1 |
| 20260901045044 | 71 | 165 | 0.0 | 2.0 | 0.00 | 0.00 | 0.00 | 53 | 1019.2 |
| 20260901044600 | 72 | 0 | 0.0 | 2.0 | 0.00 | 0.00 | 0.00 | 52 | 1019.1 |
| 20260901044043 | 72 | 0 | 0.0 | 4.0 | 0.00 | 0.00 | 0.00 | 51 | 1019.1 |
| 20260901043543 | 72 | 0 | 0.0 | 4.0 | 0.00 | 0.00 | 0.00 | 51 | 1019.1 |
| 20260901043106 | 71 | 155 | 0.0 | 2.0 | 0.00 | 0.00 | 0.00 | 51 | 1019.0 |
| 20260901042548 | 72 | 0 | 0.0 | 2.0 | 0.00 | 0.00 | 0.00 | 51 | 1018.9 |
| 20260901042045 | 72 | 0 | 0.0 | 2.0 | 0.00 | 0.00 | 0.00 | 47 | 1019.0 |
| 20260901041603 | 71 | 0 | 0.0 | 2.0 | 0.00 | 0.00 | 0.00 | 45 | 1018.9 |
| 20260901041048 | 71 | 0 | 0.0 | 3.0 | 0.00 | 0.00 | 0.00 | 45 | 1018.9 |
| 20260901040545 | 71 | 0 | 0.0 | 3.0 | 0.00 | 0.00 | 0.00 | 45 | 1018.8 |
| 20260901040103 | 71 | 58 | 0.0 | 2.0 | 0.00 | 0.00 | 0.00 | 45 | 1018.7 |
| 20260901035543 | 71 | 14 | 0.0 | 2.0 | 0.00 | 0.00 | 0.00 | 45 | 1018.8 |
| 20260901035043 | 71 | 37 | 0.0 | 3.0 | 0.00 | 0.00 | 0.00 | 44 | 1018.8 |
| 20260901034601 | 71 | 83 | 0.0 | 3.0 | 0.00 | 0.00 | 0.00 | 44 | 1018.8 |
| 20260901034043 | 71 | 0 | 0.0 | 3.0 | 0.00 | 0.00 | 0.00 | 44 | 1018.8 |
| 20260901033543 | 72 | 0 | 0.0 | 4.0 | 0.00 | 0.00 | 0.00 | 43 | 1018.9 |
| 20260901033116 | 72 | 20 | 0.0 | 4.0 | 0.00 | 0.00 | 0.00 | 43 | 1018.8 |
| 20260901032543 | 72 | 61 | 0.0 | 3.0 | 0.00 | 0.00 | 0.00 | 43 | 1018.8 |
| 20260901032042 | 72 | 0 | 0.0 | 3.0 | 0.00 | 0.00 | 0.00 | 42 | 1018.8 |
| 20260901031601 | 72 | 0 | 0.0 | 3.0 | 0.00 | 0.00 | 0.00 | 43 | 1018.7 |
| 20260901031042 | 73 | 0 | 0.0 | 4.0 | 0.00 | 0.00 | 0.00 | 42 | 1018.7 |
| 20260901030543 | 73 | 0 | 0.0 | 4.0 | 0.00 | 0.00 | 0.00 | 42 | 1018.7 |
| 20260901030106 | 73 | 0 | 0.0 | 2.0 | 0.00 | 0.00 | 0.00 | 42 | 1018.7 |
| 20260901025543 | 73 | 0 | 0.0 | 2.0 | 0.00 | 0.00 | 0.00 | 41 | 1018.6 |
| 20260901025043 | 73 | 0 | 0.0 | 2.0 | 0.00 | 0.00 | 0.00 | 41 | 1018.6 |
| 20260901024600 | 73 | 0 | 0.0 | 3.0 | 0.00 | 0.00 | 0.00 | 41 | 1018.7 |
| 20260901024045 | 73 | 132 | 0.0 | 4.0 | 0.00 | 0.00 | 0.00 | 41 | 1018.7 |
| 20260901023544 | 73 | 132 | 0.0 | 5.0 | 0.00 | 0.00 | 0.00 | 40 | 1018.5 |
| 20260901023103 | 73 | 0 | 1.0 | 5.0 | 0.00 | 0.00 | 0.00 | 40 | 1018.5 |
| 20260901022544 | 73 | 0 | 0.0 | 2.0 | 0.00 | 0.00 | 0.00 | 38 | 1018.5 |
| 20260901022045 | 73 | 0 | 0.0 | 3.0 | 0.00 | 0.00 | 0.00 | 38 | 1018.6 |
| 20260901021605 | 73 | 0 | 0.0 | 3.0 | 0.00 | 0.00 | 0.00 | 37 | 1018.6 |
| 20260901021046 | 73 | 113 | 0.0 | 2.0 | 0.00 | 0.00 | 0.00 | 37 | 1018.6 |
| 20260901020545 | 73 | 351 | 0.0 | 1.0 | 0.00 | 0.00 | 0.00 | 37 | 1018.6 |
| 20260901020104 | 73 | 0 | 0.0 | 3.0 | 0.00 | 0.00 | 0.00 | 36 | 1018.7 |
| 20260901015546 | 73 | 0 | 0.0 | 3.0 | 0.00 | 0.00 | 0.00 | 36 | 1018.7 |
| 20260901015045 | 73 | 5 | 1.0 | 3.0 | 0.00 | 0.00 | 0.00 | 36 | 1018.7 |
| 20260901014607 | 73 | 14 | 1.0 | 4.0 | 0.00 | 0.00 | 0.00 | 35 | 1018.7 |
| 20260901014045 | 74 | 61 | 0.0 | 4.0 | 0.00 | 0.00 | 0.00 | 34 | 1018.8 |
| 20260901013543 | 74 | 85 | 1.0 | 4.0 | 0.00 | 0.00 | 0.00 | 34 | 1018.7 |
| 20260901013116 | 74 | 0 | 1.0 | 3.0 | 0.00 | 0.00 | 0.00 | 33 | 1018.7 |
| 20260901012542 | 74 | 0 | 0.0 | 2.0 | 0.00 | 0.00 | 0.00 | 33 | 1018.7 |
| 20260901012042 | 74 | 0 | 0.0 | 2.0 | 0.00 | 0.00 | 0.00 | 32 | 1018.7 |
| 20260901011615 | 75 | 0 | 0.0 | 2.0 | 0.00 | 0.00 | 0.00 | 32 | 1018.7 |
| 20260901011044 | 74 | 0 | 0.0 | 0.0 | 0.00 | 0.00 | 0.00 | 32 | 1018.7 |
| 20260901010545 | 74 | 0 | 0.0 | 6.0 | 0.00 | 0.00 | 0.00 | 32 | 1018.7 |
| 20260901010114 | 74 | 0 | 0.0 | 6.0 | 0.00 | 0.00 | 0.00 | 32 | 1018.6 |
| 20260901005543 | 75 | 0 | 1.0 | 6.0 | 0.00 | 0.00 | 0.00 | 32 | 1018.6 |
| 20260901005049 | 75 | 155 | 1.0 | 6.0 | 0.00 | 0.00 | 0.00 | 31 | 1018.6 |
| 20260901004604 | 75 | 155 | 1.0 | 6.0 | 0.00 | 0.00 | 0.00 | 31 | 1018.6 |
| 20260901004046 | 76 | 0 | 1.0 | 6.0 | 0.00 | 0.00 | 0.00 | 30 | 1018.6 |
| 20260901003545 | 76 | 45 | 1.0 | 9.0 | 0.00 | 0.00 | 0.00 | 30 | 1018.8 |
| 20260901003100 | 76 | 54 | 2.0 | 9.0 | 0.00 | 0.00 | 0.00 | 30 | 1018.8 |
| 20260901002543 | 77 | 59 | 1.0 | 5.0 | 0.00 | 0.00 | 0.00 | 29 | 1018.7 |
| 20260901002043 | 77 | 32 | 1.0 | 3.0 | 0.00 | 0.00 | 0.00 | 29 | 1018.7 |
| 20260901001557 | 78 | 64 | 0.0 | 2.0 | 0.00 | 0.00 | 0.00 | 28 | 1018.6 |
| 20260901001042 | 78 | 0 | 0.0 | 2.0 | 0.00 | 0.00 | 0.00 | 28 | 1018.7 |
| 20260901000542 | 78 | 0 | 0.0 | 3.0 | 0.00 | 0.00 | 0.00 | 28 | 1018.6 |
| 20260901000100 | 78 | 0 | 1.0 | 3.0 | 0.00 | 0.00 | 0.00 | 28 | 1018.6 |
| 20260831235542 | 78 | 21 | 0.0 | 2.0 | 0.00 | 0.00 | 0.00 | 28 | 1018.6 |
| 20260831235043 | 78 | 0 | 0.0 | 2.0 | 0.00 | 0.00 | 0.00 | 28 | 1018.6 |
| 20260831234559 | 78 | 0 | 0.0 | 2.0 | 0.00 | 0.00 | 0.00 | 28 | 1018.6 |
| 20260831234042 | 78 | 0 | 0.0 | 0.0 | 0.00 | 0.00 | 0.00 | 29 | 1018.5 |
| 20260831233543 | 78 | 0 | 0.0 | 1.0 | 0.00 | 0.00 | 0.00 | 29 | 1018.5 |
| 20260831233100 | 78 | 0 | 0.0 | 2.0 | 0.00 | 0.00 | 0.00 | 29 | 1018.5 |
| 20260831232542 | 78 | 0 | 0.0 | 3.0 | 0.00 | 0.00 | 0.00 | 29 | 1018.5 |
| 20260831232041 | 78 | 21 | 0.0 | 3.0 | 0.00 | 0.00 | 0.00 | 28 | 1018.5 |
| 20260831231601 | 78 | 21 | 0.0 | 3.0 | 0.00 | 0.00 | 0.00 | 29 | 1018.5 |
| 20260831231045 | 78 | 0 | 1.0 | 2.0 | 0.00 | 0.00 | 0.00 | 28 | 1018.5 |
| 20260831230545 | 78 | 289 | 1.0 | 2.0 | 0.00 | 0.00 | 0.00 | 28 | 1018.4 |
| 20260831230115 | 78 | 0 | 0.0 | 0.0 | 0.00 | 0.00 | 0.00 | 28 | 1018.5 |
| 20260831225545 | 78 | 0 | 0.0 | 0.0 | 0.00 | 0.00 | 0.00 | 28 | 1018.4 |
| 20260831225045 | 78 | 0 | 0.0 | 1.0 | 0.00 | 0.00 | 0.00 | 28 | 1018.4 |
| 20260831224558 | 78 | 0 | 0.0 | 1.0 | 0.00 | 0.00 | 0.00 | 28 | 1018.5 |
| 20260831224047 | 78 | 0 | 0.0 | 1.0 | 0.00 | 0.00 | 0.00 | 28 | 1018.4 |
| 20260831223549 | 78 | 0 | 0.0 | 0.0 | 0.00 | 0.00 | 0.00 | 28 | 1018.3 |
| 20260831223107 | 78 | 0 | 0.0 | 0.0 | 0.00 | 0.00 | 0.00 | 28 | 1018.3 |
| 20260831222545 | 78 | 0 | 0.0 | 1.0 | 0.00 | 0.00 | 0.00 | 28 | 1018.5 |
| 20260831222043 | 78 | 0 | 0.0 | 1.0 | 0.00 | 0.00 | 0.00 | 28 | 1018.5 |
| 20260831221610 | 78 | 0 | 0.0 | 1.0 | 0.00 | 0.00 | 0.00 | 28 | 1018.4 |
| 20260831221045 | 78 | 0 | 0.0 | 1.0 | 0.00 | 0.00 | 0.00 | 27 | 1018.5 |
| 20260831220545 | 79 | 0 | 0.0 | 2.0 | 0.00 | 0.00 | 0.00 | 27 | 1018.5 |
| 20260831220114 | 79 | 289 | 0.0 | 2.0 | 0.00 | 0.00 | 0.00 | 27 | 1018.4 |
| 20260831215544 | 79 | 0 | 0.0 | 2.0 | 0.00 | 0.00 | 0.00 | 28 | 1018.5 |
| 20260831215042 | 79 | 0 | 0.0 | 1.0 | 0.00 | 0.00 | 0.00 | 28 | 1018.5 |
| 20260831214612 | 79 | 0 | 0.0 | 0.0 | 0.00 | 0.00 | 0.00 | 28 | 1018.4 |
| 20260831214045 | 79 | 0 | 0.0 | 2.0 | 0.00 | 0.00 | 0.00 | 28 | 1018.5 |
| 20260831213545 | 79 | 0 | 0.0 | 2.0 | 0.00 | 0.00 | 0.00 | 28 | 1018.5 |
| 20260831213101 | 79 | 0 | 0.0 | 2.0 | 0.00 | 0.00 | 0.00 | 27 | 1018.5 |
| 20260831212543 | 79 | 0 | 0.0 | 3.0 | 0.00 | 0.00 | 0.00 | 27 | 1018.4 |
| 20260831212046 | 79 | 289 | 0.0 | 3.0 | 0.00 | 0.00 | 0.00 | 27 | 1018.3 |
| 20260831211600 | 80 | 0 | 0.0 | 3.0 | 0.00 | 0.00 | 0.00 | 27 | 1018.4 |
| 20260831211043 | 80 | 0 | 0.0 | 3.0 | 0.00 | 0.00 | 0.00 | 27 | 1018.4 |
| 20260831210544 | 80 | 305 | 0.0 | 4.0 | 0.00 | 0.00 | 0.00 | 27 | 1018.3 |
| 20260831210107 | 81 | 294 | 0.0 | 7.0 | 0.00 | 0.00 | 0.00 | 27 | 1018.3 |
| 20260831205547 | 82 | 251 | 0.0 | 7.0 | 0.00 | 0.00 | 0.00 | 27 | 1018.3 |
| 20260831205043 | 82 | 324 | 1.0 | 4.0 | 0.00 | 0.00 | 0.00 | 27 | 1018.2 |
| 20260831204557 | 83 | 282 | 0.0 | 3.0 | 0.00 | 0.00 | 0.00 | 26 | 1018.2 |
| 20260831204046 | 83 | 281 | 0.0 | 3.0 | 0.00 | 0.00 | 0.00 | 27 | 1018.1 |
| 20260831203542 | 83 | 281 | 0.0 | 2.0 | 0.00 | 0.00 | 0.00 | 26 | 1018.1 |
| 20260831203109 | 83 | 0 | 0.0 | 1.0 | 0.00 | 0.00 | 0.00 | 27 | 1018.1 |
| 20260831202543 | 84 | 0 | 0.0 | 1.0 | 0.00 | 0.00 | 0.00 | 26 | 1018.0 |
| 20260831202048 | 84 | 0 | 0.0 | 1.0 | 0.00 | 0.00 | 0.00 | 26 | 1018.0 |
| 20260831201608 | 84 | 0 | 0.0 | 2.0 | 0.00 | 0.00 | 0.00 | 26 | 1018.0 |
| 20260831201044 | 84 | 0 | 0.0 | 2.0 | 0.00 | 0.00 | 0.00 | 26 | 1018.0 |
| 20260831200546 | 85 | 0 | 0.0 | 1.0 | 0.00 | 0.00 | 0.00 | 25 | 1017.8 |
| 20260831200111 | 85 | 0 | 0.0 | 1.0 | 0.00 | 0.00 | 0.00 | 26 | 1017.8 |
| 20260831195544 | 85 | 0 | 0.0 | 1.0 | 0.00 | 0.00 | 0.00 | 25 | 1017.7 |
| 20260831195044 | 85 | 0 | 0.0 | 1.0 | 0.00 | 0.00 | 0.00 | 25 | 1017.7 |
| 20260831194615 | 85 | 0 | 0.0 | 1.0 | 0.00 | 0.00 | 0.00 | 25 | 1017.5 |
| 20260831194043 | 85 | 0 | 0.0 | 1.0 | 0.00 | 0.00 | 0.00 | 25 | 1017.5 |
| 20260831193543 | 85 | 0 | 0.0 | 1.0 | 0.00 | 0.00 | 0.00 | 26 | 1017.5 |
| 20260831193106 | 85 | 0 | 0.0 | 1.0 | 0.00 | 0.00 | 0.00 | 25 | 1017.5 |
| 20260831192544 | 85 | 0 | 0.0 | 1.0 | 0.00 | 0.00 | 0.00 | 25 | 1017.4 |
| 20260831192041 | 85 | 0 | 0.0 | 1.0 | 0.00 | 0.00 | 0.00 | 25 | 1017.3 |
| 20260831191555 | 86 | 0 | 0.0 | 1.0 | 0.00 | 0.00 | 0.00 | 25 | 1017.4 |
| 20260831191047 | 86 | 0 | 0.0 | 1.0 | 0.00 | 0.00 | 0.00 | 25 | 1017.3 |
| 20260831190543 | 86 | 0 | 0.0 | 2.0 | 0.00 | 0.00 | 0.00 | 25 | 1017.3 |
| 20260831190106 | 86 | 0 | 0.0 | 2.0 | 0.00 | 0.00 | 0.00 | 25 | 1017.3 |
| 20260831185544 | 86 | 0 | 0.0 | 2.0 | 0.00 | 0.00 | 0.00 | 25 | 1017.3 |
| 20260831185042 | 86 | 0 | 0.0 | 1.0 | 0.00 | 0.00 | 0.00 | 25 | 1017.2 |
| 20260831184600 | 87 | 0 | 0.0 | 2.0 | 0.00 | 0.00 | 0.00 | 25 | 1017.2 |
| 20260831184043 | 87 | 0 | 0.0 | 2.0 | 0.00 | 0.00 | 0.00 | 24 | 1017.2 |
| 20260831183543 | 87 | 0 | 0.0 | 2.0 | 0.00 | 0.00 | 0.00 | 24 | 1017.2 |
| 20260831183059 | 87 | 0 | 0.0 | 3.0 | 0.00 | 0.00 | 0.00 | 24 | 1017.2 |
| 20260831182546 | 87 | 0 | 0.0 | 3.0 | 0.00 | 0.00 | 0.00 | 24 | 1017.3 |
| 20260831182043 | 88 | 351 | 0.0 | 3.0 | 0.00 | 0.00 | 0.00 | 24 | 1017.2 |
| 20260831181603 | 88 | 267 | 0.0 | 4.0 | 0.00 | 0.00 | 0.00 | 24 | 1017.2 |
| 20260831181044 | 88 | 270 | 1.0 | 4.0 | 0.00 | 0.00 | 0.00 | 23 | 1017.2 |
| 20260831180544 | 88 | 0 | 0.0 | 3.0 | 0.00 | 0.00 | 0.00 | 23 | 1017.2 |
| 20260831180115 | 88 | 0 | 0.0 | 7.0 | 0.00 | 0.00 | 0.00 | 23 | 1017.3 |
| 20260831175545 | 89 | 0 | 0.0 | 7.0 | 0.00 | 0.00 | 0.00 | 23 | 1017.3 |
| 20260831175045 | 89 | 246 | 1.0 | 7.0 | 0.00 | 0.00 | 0.00 | 22 | 1017.3 |
| 20260831174559 | 89 | 0 | 0.0 | 2.0 | 0.00 | 0.00 | 0.00 | 22 | 1017.3 |
| 20260831174045 | 89 | 0 | 0.0 | 4.0 | 0.00 | 0.00 | 0.00 | 22 | 1017.3 |
| 20260831173545 | 89 | 198 | 0.0 | 8.0 | 0.00 | 0.00 | 0.00 | 22 | 1017.3 |
| 20260831173107 | 89 | 0 | 1.0 | 8.0 | 0.00 | 0.00 | 0.00 | 22 | 1017.4 |
| 20260831172544 | 89 | 294 | 1.0 | 5.0 | 0.00 | 0.00 | 0.00 | 21 | 1017.3 |
| 20260831172048 | 89 | 307 | 0.0 | 7.0 | 0.00 | 0.00 | 0.00 | 21 | 1017.4 |
| 20260831171602 | 89 | 117 | 2.0 | 7.0 | 0.00 | 0.00 | 0.00 | 21 | 1017.3 |
| 20260831171045 | 89 | 291 | 3.0 | 7.0 | 0.00 | 0.00 | 0.00 | 21 | 1017.4 |
| 20260831170545 | 90 | 247 | 1.0 | 5.0 | 0.00 | 0.00 | 0.00 | 21 | 1017.3 |
| 20260831165543 | 90 | 283 | 2.0 | 9.0 | 0.00 | 0.00 | 0.00 | 21 | 1017.5 |
| 20260831165044 | 90 | 277 | 1.0 | 9.0 | 0.00 | 0.00 | 0.00 | 21 | 1017.5 |
| 20260831164600 | 89 | 314 | 3.0 | 9.0 | 0.00 | 0.00 | 0.00 | 21 | 1017.4 |
| 20260831164043 | 90 | 230 | 1.0 | 6.0 | 0.00 | 0.00 | 0.00 | 20 | 1017.5 |
| 20260831163542 | 90 | 308 | 2.0 | 10.0 | 0.00 | 0.00 | 0.00 | 21 | 1017.6 |
| 20260831163110 | 90 | 251 | 1.0 | 12.0 | 0.00 | 0.00 | 0.00 | 20 | 1017.6 |
| 20260831162547 | 90 | 5 | 3.0 | 12.0 | 0.00 | 0.00 | 0.00 | 21 | 1017.5 |
| 20260831162045 | 88 | 215 | 4.0 | 14.0 | 0.00 | 0.00 | 0.00 | 21 | 1017.7 |
| 20260831161605 | 89 | 193 | 4.0 | 14.0 | 0.00 | 0.00 | 0.00 | 21 | 1017.6 |
| 20260831161042 | 90 | 222 | 2.0 | 12.0 | 0.00 | 0.00 | 0.00 | 19 | 1017.7 |
| 20260831160543 | 91 | 329 | 1.0 | 9.0 | 0.00 | 0.00 | 0.00 | 19 | 1017.8 |
| 20260831160108 | 91 | 315 | 2.0 | 9.0 | 0.00 | 0.00 | 0.00 | 19 | 1017.7 |
| 20260831155543 | 91 | 267 | 2.0 | 9.0 | 0.00 | 0.00 | 0.00 | 20 | 1017.8 |
| 20260831155044 | 90 | 4 | 3.0 | 9.0 | 0.00 | 0.00 | 0.00 | 21 | 1017.8 |
| 20260831154631 | 90 | 12 | 1.0 | 10.0 | 0.00 | 0.00 | 0.00 | 21 | 1017.8 |
| 20260831154046 | 91 | 182 | 2.0 | 10.0 | 0.00 | 0.00 | 0.00 | 21 | 1017.9 |
| 20260831153542 | 89 | 324 | 2.0 | 6.0 | 0.00 | 0.00 | 0.00 | 22 | 1017.8 |
| 20260831153059 | 89 | 0 | 1.0 | 11.0 | 0.00 | 0.00 | 0.00 | 22 | 1017.9 |
| 20260831152545 | 88 | 164 | 3.0 | 12.0 | 0.00 | 0.00 | 0.00 | 22 | 1018.0 |
| 20260831152045 | 88 | 166 | 6.0 | 13.0 | 0.00 | 0.00 | 0.00 | 23 | 1018.0 |
| 20260831151600 | 88 | 249 | 5.0 | 13.0 | 0.00 | 0.00 | 0.00 | 23 | 1018.1 |
| 20260831151042 | 89 | 237 | 6.0 | 11.0 | 0.00 | 0.00 | 0.00 | 22 | 1018.1 |
| 20260831150543 | 90 | 178 | 3.0 | 10.0 | 0.00 | 0.00 | 0.00 | 22 | 1018.1 |
| 20260831150110 | 89 | 0 | 2.0 | 9.0 | 0.00 | 0.00 | 0.00 | 23 | 1018.1 |
| 20260831145544 | 88 | 161 | 3.0 | 9.0 | 0.00 | 0.00 | 0.00 | 22 | 1018.1 |
| 20260831145049 | 88 | 0 | 3.0 | 10.0 | 0.00 | 0.00 | 0.00 | 22 | 1018.2 |
| 20260831144603 | 89 | 282 | 3.0 | 10.0 | 0.00 | 0.00 | 0.00 | 21 | 1018.2 |
| 20260831144042 | 90 | 186 | 2.0 | 9.0 | 0.00 | 0.00 | 0.00 | 21 | 1018.2 |
| 20260831143545 | 89 | 305 | 4.0 | 11.0 | 0.00 | 0.00 | 0.00 | 22 | 1018.3 |
| 20260831143112 | 90 | 341 | 4.0 | 11.0 | 0.00 | 0.00 | 0.00 | 21 | 1018.3 |
| 20260831142543 | 90 | 200 | 1.0 | 10.0 | 0.00 | 0.00 | 0.00 | 23 | 1018.2 |
| 20260831142044 | 89 | 193 | 5.0 | 9.0 | 0.00 | 0.00 | 0.00 | 23 | 1018.3 |
| 20260831141604 | 89 | 341 | 2.0 | 7.0 | 0.00 | 0.00 | 0.00 | 23 | 1018.3 |
| 20260831141045 | 88 | 232 | 1.0 | 8.0 | 0.00 | 0.00 | 0.00 | 23 | 1018.4 |
| 20260831140546 | 88 | 5 | 4.0 | 8.0 | 0.00 | 0.00 | 0.00 | 23 | 1018.5 |
| 20260831140058 | 89 | 218 | 1.0 | 8.0 | 0.00 | 0.00 | 0.00 | 22 | 1018.5 |
| 20260831135547 | 88 | 274 | 2.0 | 8.0 | 0.00 | 0.00 | 0.00 | 23 | 1018.6 |
| 20260831135043 | 89 | 0 | 2.0 | 9.0 | 0.00 | 0.00 | 0.00 | 22 | 1018.7 |
| 20260831134555 | 87 | 232 | 3.0 | 10.0 | 0.00 | 0.00 | 0.00 | 24 | 1018.7 |
| 20260831134042 | 87 | 153 | 4.0 | 10.0 | 0.00 | 0.00 | 0.00 | 24 | 1018.7 |
| 20260831133547 | 87 | 244 | 2.0 | 12.0 | 0.00 | 0.00 | 0.00 | 24 | 1018.8 |
| 20260831133103 | 87 | 231 | 2.0 | 12.0 | 0.00 | 0.00 | 0.00 | 25 | 1018.9 |
| 20260831132542 | 87 | 214 | 4.0 | 10.0 | 0.00 | 0.00 | 0.00 | 24 | 1019.0 |
| 20260831132043 | 86 | 107 | 4.0 | 10.0 | 0.00 | 0.00 | 0.00 | 25 | 1019.0 |
| 20260831131604 | 86 | 211 | 5.0 | 10.0 | 0.00 | 0.00 | 0.00 | 25 | 1019.0 |
| 20260831131042 | 87 | 151 | 3.0 | 16.0 | 0.00 | 0.00 | 0.00 | 25 | 1019.0 |
| 20260831130545 | 87 | 199 | 0.0 | 16.0 | 0.00 | 0.00 | 0.00 | 26 | 1019.1 |
| 20260831130100 | 85 | 188 | 3.0 | 10.0 | 0.00 | 0.00 | 0.00 | 26 | 1019.1 |
| 20260831125545 | 86 | 186 | 4.0 | 9.0 | 0.00 | 0.00 | 0.00 | 26 | 1019.2 |
| 20260831125043 | 86 | 189 | 1.0 | 10.0 | 0.00 | 0.00 | 0.00 | 26 | 1019.2 |
| 20260831124557 | 86 | 190 | 5.0 | 10.0 | 0.00 | 0.00 | 0.00 | 26 | 1019.3 |
| 20260831124045 | 87 | 215 | 1.0 | 5.0 | 0.00 | 0.00 | 0.00 | 25 | 1019.3 |
| 20260831123543 | 86 | 0 | 1.0 | 9.0 | 0.00 | 0.00 | 0.00 | 26 | 1019.4 |
| 20260831123057 | 84 | 0 | 3.0 | 10.0 | 0.00 | 0.00 | 0.00 | 27 | 1019.4 |
| 20260831122546 | 85 | 188 | 3.0 | 13.0 | 0.00 | 0.00 | 0.00 | 27 | 1019.5 |
| 20260831122043 | 84 | 229 | 5.0 | 13.0 | 0.00 | 0.00 | 0.00 | 28 | 1019.6 |
| 20260831121603 | 86 | 230 | 2.0 | 10.0 | 0.00 | 0.00 | 0.00 | 26 | 1019.5 |
| 20260831121043 | 86 | 330 | 2.0 | 10.0 | 0.00 | 0.00 | 0.00 | 26 | 1019.6 |
| 20260831120545 | 86 | 244 | 1.0 | 8.0 | 0.00 | 0.00 | 0.00 | 26 | 1019.7 |
| 20260831120119 | 85 | 257 | 2.0 | 8.0 | 0.00 | 0.00 | 0.00 | 27 | 1019.7 |
| 20260831115544 | 83 | 126 | 2.0 | 9.0 | 0.00 | 0.00 | 0.00 | 29 | 1019.7 |
| 20260831115045 | 83 | 202 | 4.0 | 10.0 | 0.00 | 0.00 | 0.00 | 29 | 1019.9 |
| 20260831114600 | 83 | 152 | 4.0 | 10.0 | 0.00 | 0.00 | 0.00 | 29 | 1019.8 |
| 20260831114126 | 83 | 176 | 5.0 | 10.0 | 0.00 | 0.00 | 0.00 | 29 | 1019.9 |
| 20260831113543 | 84 | 209 | 1.0 | 8.0 | 0.00 | 0.00 | 0.00 | 28 | 1020.0 |
| 20260831113108 | 82 | 351 | 3.0 | 11.0 | 0.00 | 0.00 | 0.00 | 30 | 1020.1 |
| 20260831112544 | 82 | 172 | 1.0 | 11.0 | 0.00 | 0.00 | 0.00 | 30 | 1020.2 |
| 20260831112045 | 83 | 218 | 4.0 | 11.0 | 0.00 | 0.00 | 0.00 | 30 | 1020.2 |
| 20260831111611 | 82 | 177 | 1.0 | 7.0 | 0.00 | 0.00 | 0.00 | 30 | 1020.2 |
| 20260831111043 | 83 | 180 | 1.0 | 7.0 | 0.00 | 0.00 | 0.00 | 29 | 1020.2 |
| 20260831110547 | 84 | 203 | 1.0 | 7.0 | 0.00 | 0.00 | 0.00 | 29 | 1020.3 |
| 20260831110104 | 82 | 197 | 2.0 | 7.0 | 0.00 | 0.00 | 0.00 | 30 | 1020.3 |
| 20260831105545 | 81 | 0 | 1.0 | 5.0 | 0.00 | 0.00 | 0.00 | 31 | 1020.3 |
| 20260831105042 | 81 | 162 | 3.0 | 5.0 | 0.00 | 0.00 | 0.00 | 30 | 1020.4 |